Location: Domachevo
(51.7500°N, 23.6000°E)
Time: 23:25:57
(UTC+02:00)

Envisat - Visible Passes

Search period start: 21 February 2018 00:00
Search period end: 03 March 2018 00:00
Orbit: 764 x 766 km, 98.2° (Epoch: 21 February)

Date Brightness Start Highest point End Pass type
(mag) Time Alt. Az. Time Alt. Az. Time Alt. Az.
21 Feb 3.0 19:16:29 10° SSE 19:21:28 59° ENE 19:26:29 10° N visible
21 Feb 5.1 20:56:49 10° SW 21:00:53 24° W 21:04:57 10° NW visible
22 Feb 3.7 18:40:30 10° ESE 18:44:57 32° ENE 18:49:26 10° N visible
22 Feb 4.0 20:18:59 10° S 20:23:51 45° W 20:28:45 10° NNW visible
23 Feb 3.0 19:41:56 10° SSE 19:47:01 88° WSW 19:52:09 10° NNW visible
23 Feb 5.8 21:23:58 10° WSW 21:26:48 15° W 21:29:39 10° NW visible
24 Feb 3.2 19:05:30 10° SE 19:10:23 49° ENE 19:15:17 10° N visible
24 Feb 4.9 20:45:15 10° SSW 20:49:38 29° W 20:54:02 10° NNW visible
25 Feb 3.9 18:29:42 10° ESE 18:33:55 27° ENE 18:38:09 10° N visible
25 Feb 3.6 20:07:41 10° S 20:12:40 55° W 20:17:41 10° NNW visible
26 Feb 2.9 19:30:49 10° SSE 19:35:53 77° ENE 19:41:00 10° NNW visible
26 Feb 5.5 21:12:04 10° SW 21:15:31 18° W 21:18:59 10° NW visible
27 Feb 3.4 18:54:34 10° SE 18:59:18 41° ENE 19:04:03 10° N visible
27 Feb 4.5 20:33:47 10° SSW 20:38:24 35° W 20:43:04 10° NNW visible
28 Feb 3.3 19:56:26 10° S 20:01:29 68° WSW 20:06:35 10° NNW visible
28 Feb 6.0 21:40:10 10° W 21:41:30 11° W 21:42:51 10° WNW visible
01 Mar 3.0 19:19:45 10° SSE 19:24:46 64° ENE 19:29:49 10° N visible
01 Mar 5.3 21:00:20 10° SW 21:04:15 22° W 21:08:10 10° NW visible
02 Mar 3.7 18:43:42 10° SE 18:48:14 34° ENE 18:52:48 10° N visible
02 Mar 4.2 20:22:23 10° SSW 20:27:11 42° W 20:32:02 10° NNW visible
